EN

Hourly Weather Xudat

Today, 29 November, Sunday

Time Temperature Precipitation Wind Pressure Humidity
00:00 +4°C° 0 mm 6 mps 766 mmHg 55%
01:00 +4°C° 0 mm 6 mps 766 mmHg 54%
02:00 +4°C° 0 mm 6 mps 766 mmHg 54%
03:00 +4°C° 0 mm 6 mps 766 mmHg 53%
04:00 +4°C° 0 mm 6 mps 766 mmHg 54%
05:00 +4°C° 0 mm 6 mps 766 mmHg 56%
06:00 +5°C° 0 mm 5 mps 765 mmHg 57%
07:00 +5°C° 0 mm 6 mps 765 mmHg 60%
08:00 +7°C° 0 mm 6 mps 766 mmHg 63%
09:00 +8°C° 0 mm 6 mps 766 mmHg 66%
10:00 +8°C° 0 mm 6 mps 766 mmHg 69%
11:00 +9°C° 0 mm 6 mps 766 mmHg 71%
12:00 +9°C° 0 mm 6 mps 766 mmHg 74%
13:00 +9°C° 0 mm 6 mps 766 mmHg 78%
14:00 +8°C° 0 mm 6 mps 766 mmHg 83%
15:00 +8°C° 0 mm 7 mps 766 mmHg 87%
16:00 +7°C° 0 mm 6 mps 766 mmHg 88%
17:00 +7°C° 0 mm 5 mps 766 mmHg 90%
18:00 +7°C° 0 mm 4 mps 766 mmHg 91%
19:00 +8°C° 0.1 mm 3 mps 766 mmHg 92%
20:00 +8°C° 0.1 mm 3 mps 766 mmHg 93%
21:00 +8°C° 0.1 mm 3 mps 766 mmHg 94%
22:00 +8°C° 0.2 mm 3 mps 766 mmHg 94%
23:00 +8°C° 0.2 mm 3 mps 766 mmHg 94%

Tomorrow, 30 November, Monday

Time Temperature Precipitation Wind Pressure Humidity
00:00 +7°C° 0.2 mm 4 mps 766 mmHg 93%
01:00 +6°C° 0.1 mm 4 mps 766 mmHg 91%
02:00 +6°C° 0.1 mm 5 mps 766 mmHg 88%
03:00 +6°C° 0.1 mm 5 mps 766 mmHg 86%
04:00 +5°C° 0.4 mm 5 mps 766 mmHg 88%
05:00 +5°C° 0.4 mm 4 mps 765 mmHg 91%
06:00 +5°C° 0.4 mm 3 mps 765 mmHg 93%
07:00 +4°C° 0.8 mm 3 mps 766 mmHg 94%
08:00 +4°C° 0.8 mm 3 mps 766 mmHg 94%
09:00 +4°C° 0.8 mm 4 mps 766 mmHg 95%
10:00 +4°C° 0.3 mm 3 mps 766 mmHg 94%
11:00 +4°C° 0.3 mm 3 mps 765 mmHg 92%
12:00 +6°C° 0.3 mm 2 mps 765 mmHg 90%
13:00 +6°C° 0.2 mm 2 mps 765 mmHg 89%
14:00 +6°C° 0.2 mm 2 mps 765 mmHg 88%
15:00 +6°C° 0.2 mm 2 mps 765 mmHg 87%
16:00 +5°C° 0.2 mm 2 mps 765 mmHg 88%
17:00 +5°C° 0.2 mm 2 mps 765 mmHg 89%
18:00 +5°C° 0.2 mm 2 mps 765 mmHg 90%
19:00 +5°C° 0.2 mm 2 mps 765 mmHg 89%
20:00 +5°C° 0.2 mm 2 mps 765 mmHg 89%
21:00 +4°C° 0.2 mm 2 mps 765 mmHg 88%
22:00 +6°C° 0.1 mm 1 mps 765 mmHg 86%
23:00 +6°C° 0.1 mm 1 mps 764 mmHg 84%

Day after tomorrow, 1 December, Tuesday

Time Temperature Precipitation Wind Pressure Humidity
00:00 +6°C° 0.1 mm 1 mps 764 mmHg 83%
01:00 +6°C° 0 mm 1 mps 764 mmHg 82%
02:00 +6°C° 0 mm 1 mps 764 mmHg 81%
03:00 +6°C° 0 mm 1 mps 763 mmHg 80%
04:00 +6°C° 0 mm 1 mps 763 mmHg 80%
05:00 +6°C° 0 mm 1 mps 763 mmHg 80%
06:00 +5°C° 0 mm 1 mps 763 mmHg 79%
07:00 +6°C° 0.1 mm 1 mps 763 mmHg 76%
08:00 +7°C° 0.1 mm 1 mps 763 mmHg 72%
09:00 +8°C° 0.1 mm 1 mps 763 mmHg 69%
10:00 +8°C° 0 mm 2 mps 763 mmHg 67%
11:00 +9°C° 0 mm 2 mps 762 mmHg 66%
12:00 +10°C° 0 mm 2 mps 762 mmHg 65%
13:00 +10°C° 0 mm 2 mps 762 mmHg 66%
14:00 +10°C° 0 mm 2 mps 762 mmHg 68%
15:00 +10°C° 0 mm 2 mps 762 mmHg 69%
16:00 +10°C° 0 mm 1 mps 762 mmHg 74%
17:00 +9°C° 0 mm 1 mps 762 mmHg 79%
18:00 +8°C° 0 mm 1 mps 763 mmHg 84%
19:00 +7°C° 0 mm 1 mps 763 mmHg 80%
20:00 +7°C° 0 mm 1 mps 763 mmHg 76%
21:00 +7°C° 0 mm 1 mps 763 mmHg 72%
22:00 +6°C° 0 mm 2 mps 763 mmHg 71%
23:00 +6°C° 0 mm 2 mps 763 mmHg 70%

2 December, Wednesday

Time Temperature Precipitation Wind Pressure Humidity
00:00 +6°C° 0 mm 2 mps 763 mmHg 68%
01:00 +6°C° 0 mm 2 mps 763 mmHg 69%
02:00 +6°C° 0 mm 2 mps 763 mmHg 70%
03:00 +5°C° 0 mm 3 mps 764 mmHg 70%
04:00 +5°C° 0 mm 3 mps 764 mmHg 72%
05:00 +5°C° 0 mm 3 mps 764 mmHg 74%
06:00 +6°C° 0 mm 4 mps 764 mmHg 76%
07:00 +7°C° 0 mm 4 mps 764 mmHg 75%
08:00 +9°C° 0 mm 3 mps 764 mmHg 74%
09:00 +9°C° 0 mm 3 mps 765 mmHg 73%
10:00 +10°C° 0.1 mm 3 mps 764 mmHg 74%
11:00 +10°C° 0.1 mm 3 mps 764 mmHg 75%
12:00 +12°C° 0.1 mm 2 mps 764 mmHg 77%
13:00 +11°C° 0.1 mm 3 mps 764 mmHg 79%
14:00 +10°C° 0.1 mm 3 mps 764 mmHg 81%
15:00 +10°C° 0.1 mm 3 mps 764 mmHg 83%
16:00 +10°C° 0.1 mm 3 mps 765 mmHg 87%
17:00 +9°C° 0.1 mm 3 mps 765 mmHg 91%
18:00 +8°C° 0.1 mm 3 mps 765 mmHg 95%
19:00 +7°C° 0.1 mm 4 mps 765 mmHg 94%
20:00 +7°C° 0.1 mm 4 mps 766 mmHg 93%
21:00 +7°C° 0.1 mm 4 mps 766 mmHg 93%
22:00 +7°C° 0 mm 4 mps 766 mmHg 92%
23:00 +8°C° 0 mm 3 mps 766 mmHg 92%

3 December, Thursday

Time Temperature Precipitation Wind Pressure Humidity
00:00 +8°C° 0 mm 3 mps 766 mmHg 92%
01:00 +8°C° 0 mm 3 mps 766 mmHg 92%
02:00 +8°C° 0 mm 2 mps 766 mmHg 92%
03:00 +8°C° 0 mm 2 mps 766 mmHg 91%
04:00 +7°C° 0.1 mm 2 mps 766 mmHg 92%
05:00 +7°C° 0.1 mm 2 mps 766 mmHg 92%
06:00 +7°C° 0.1 mm 2 mps 767 mmHg 92%
07:00 +7°C° 0 mm 2 mps 767 mmHg 91%
08:00 +7°C° 0 mm 2 mps 767 mmHg 91%
09:00 +7°C° 0 mm 2 mps 768 mmHg 90%
10:00 +8°C° 0 mm 2 mps 768 mmHg 89%
11:00 +8°C° 0 mm 2 mps 767 mmHg 88%
12:00 +8°C° 0 mm 2 mps 767 mmHg 87%
13:00 +8°C° 0 mm 2 mps 767 mmHg 87%
14:00 +8°C° 0 mm 2 mps 767 mmHg 88%
15:00 +8°C° 0 mm 3 mps 767 mmHg 88%
16:00 +7°C° 0 mm 2 mps 767 mmHg 88%
17:00 +7°C° 0 mm 2 mps 768 mmHg 89%
18:00 +7°C° 0 mm 2 mps 768 mmHg 90%
19:00 +7°C° 0 mm 2 mps 768 mmHg 90%
20:00 +7°C° 0 mm 3 mps 768 mmHg 90%
21:00 +7°C° 0 mm 3 mps 768 mmHg 90%
22:00 +7°C° 0 mm 3 mps 768 mmHg 90%
23:00 +7°C° 0 mm 3 mps 768 mmHg 90%

4 December, Friday

Time Temperature Precipitation Wind Pressure Humidity
00:00 +6°C° 0 mm 4 mps 768 mmHg 90%
01:00 +6°C° 0 mm 4 mps 768 mmHg 89%
02:00 +5°C° 0 mm 4 mps 768 mmHg 89%
03:00 +5°C° 0 mm 3 mps 768 mmHg 89%
04:00 +5°C° 0 mm 4 mps 768 mmHg 89%
05:00 +5°C° 0 mm 4 mps 768 mmHg 89%
06:00 +5°C° 0 mm 4 mps 768 mmHg 89%
07:00 +5°C° 0 mm 4 mps 768 mmHg 88%
08:00 +6°C° 0 mm 4 mps 768 mmHg 87%
09:00 +6°C° 0 mm 4 mps 769 mmHg 86%
10:00 +6°C° 0 mm 4 mps 768 mmHg 87%
11:00 +6°C° 0 mm 4 mps 768 mmHg 87%
12:00 +6°C° 0 mm 4 mps 767 mmHg 87%
13:00 +6°C° 0.1 mm 4 mps 767 mmHg 89%
14:00 +6°C° 0.1 mm 4 mps 767 mmHg 90%
15:00 +6°C° 0.1 mm 4 mps 767 mmHg 92%
16:00 +6°C° 0.3 mm 5 mps 767 mmHg 92%
17:00 +6°C° 0.3 mm 5 mps 767 mmHg 93%
18:00 +5°C° 0.3 mm 6 mps 767 mmHg 93%
19:00 +5°C° 0.2 mm 6 mps 767 mmHg 93%
20:00 +5°C° 0.2 mm 6 mps 767 mmHg 93%
21:00 +5°C° 0.2 mm 6 mps 767 mmHg 93%
22:00 +5°C° 0.1 mm 6 mps 767 mmHg 93%
23:00 +6°C° 0.1 mm 5 mps 767 mmHg 93%
Show more

We Need Your Consent

Meteoprog and our Service Providers may store and access personal data such as cookies, device identifiers or other similar technologies on your device and process such data to personalise content and ads, as well as provide social media features and to analyse the traffic.

  • Store and/or access information on your device

    Cookies, device identifiers or other information can be stored or accessed on your device for the purposes indicated above.

  • Personalised ads and content, ad and content measurement, audience insights, and products development

    Ads and content can be personalised based on a profile. More data can be added to better personalise ads and content. Ad and content performance can be measured. Insights about the audience who saw the ads and content can be derived. Such data can be used to develop or improve user’s experience, systems and software.

By clicking ‘I Agree’ you will allow the use of indicated cookies, device identifiers, web beacons or other similar technologies. Your settings can be changed in the browser on your device.

For certain purposes, legitimate interests may be relied on, rather than consent. You can read more about this in our Privacy and Cookie Policy.